Location: Jaite
(41.2884°N, 81.5737°W)
Time: 06:03:12
(UTC+00:00)

COSMOS 2406 - Pass Details

Date: 15 November 2025
Orbit: 845 x 858 km, 71.0° (Epoch: 04 December)

Event Time Altitude Azimuth Distance (km) Brightness Sun altitude
Rises 00:01:39 0° 343° (NNW) 3,415 6.5 -21.5°
Reaches altitude 10° 00:04:22 10° 353° (N) 2,477 5.6 -22.0°
Enters shadow 00:07:52 28° 26° (NNE) 1,541 4.3 -22.6°
